sat.trackr.live / text

‹ back to catalog

STARLINK-2645

NORAD 48444 · 2021-040S

PAYLOAD ACTIVE UNKNOWN

§ Identity

Operator
Country
US
Launch date
2021-05-09
Launch site
AFETR
Launch vehicle
Mass (kg)
RCS (m²)

Purposes: comms

External: N2YO · Heavens-Above · Gunter

§ Orbital elements

Epoch: 2026-09-19T19:14:00.371616Z

Period
94.01 min
Inclination
53.1605°
Eccentricity
0.0001254
Mean motion
15.31711134 rev/d
Perigee alt
469.8 km
Apogee alt
471.6 km
Semi-major
6,848.8 km
B*
8.2453e-5
RAAN
354.8157°
Arg perigee
77.1797°
Mean anomaly
282.9345°
Rev number
29,642

§ Raw data

STARLINK-26451 48444U 21040S   26262.80139319  .00002195  00000+0  82453-4 0  99952 48444  53.1605 354.8157 0001254  77.1797 282.9345 15.31711134296422

JSON: /api/v1/satellites/48444 · /tle

For live sub-satellite position, see the globe view (requires WebGL).

§ Visibility from observer

Set your observer location to see the next 7 days of passes ≥ 10°. The values pass through the URL so the page stays shareable.

No JS? Fill the form by hand. The geolocation button needs JavaScript.